Time,TemperatureF,DewpointF,PressureIn,WindDirection,WindDirectionDegrees,WindSpeedMPH,WindSpeedGustMPH,Humidity,HourlyPrecipIn,Conditions,Clouds,dailyrainin,SoftwareType,DateUTC
2013-06-23 00:00:00,70.1,18.6,29.72,SE,128,0.0,0.0,14,0.00,,,0.00,Wunderground v.1.15,2013-06-23 06:00:00,
2013-06-23 00:05:00,70.0,21.7,29.72,SE,128,0.0,0.0,16,0.00,,,0.00,Wunderground v.1.15,2013-06-23 06:05:00,
2013-06-23 00:15:00,69.3,22.6,29.72,ESE,123,0.0,0.0,17,0.00,,,0.00,Wunderground v.1.15,2013-06-23 06:15:00,
2013-06-23 00:20:00,68.8,22.2,29.72,SE,124,0.0,0.0,17,0.00,,,0.00,Wunderground v.1.15,2013-06-23 06:20:00,
2013-06-23 00:30:00,67.9,21.4,29.72,SE,124,0.0,0.0,17,0.00,,,0.00,Wunderground v.1.15,2013-06-23 06:30:00,
2013-06-23 00:40:00,67.3,19.5,29.72,SE,124,0.0,0.0,16,0.00,,,0.00,Wunderground v.1.15,2013-06-23 06:40:00,
2013-06-23 00:45:00,66.9,19.2,29.72,SE,124,0.0,0.0,16,0.00,,,0.00,Wunderground v.1.15,2013-06-23 06:45:00,
2013-06-23 00:50:00,66.8,17.6,29.72,ESE,123,0.0,0.0,15,0.00,,,0.00,Wunderground v.1.15,2013-06-23 06:50:00,
2013-06-23 00:55:00,67.5,21.1,29.72,ESE,116,0.0,0.0,17,0.00,,,0.00,Wunderground v.1.15,2013-06-23 06:55:00,
2013-06-23 01:00:00,67.7,19.8,29.72,ESE,115,0.0,0.0,16,0.00,,,0.00,Wunderground v.1.15,2013-06-23 07:00:00,
2013-06-23 01:10:00,67.7,19.8,29.73,ESE,118,0.0,0.0,16,0.00,,,0.00,Wunderground v.1.15,2013-06-23 07:10:00,
2013-06-23 01:20:00,67.2,19.4,29.73,ESE,117,0.0,0.0,16,0.00,,,0.00,Wunderground v.1.15,2013-06-23 07:20:00,
2013-06-23 01:30:00,67.4,18.1,29.73,SE,135,0.0,1.0,15,0.00,,,0.00,Wunderground v.1.15,2013-06-23 07:30:00,
2013-06-23 01:35:00,67.9,18.5,29.73,SE,127,0.0,1.0,15,0.00,,,0.00,Wunderground v.1.15,2013-06-23 07:35:00,
2013-06-23 01:45:00,67.5,19.7,29.73,SSE,156,0.0,1.0,16,0.00,,,0.00,Wunderground v.1.15,2013-06-23 07:45:00,
2013-06-23 01:55:00,68.2,18.7,29.74,SE,124,2.0,3.0,15,0.00,,,0.00,Wunderground v.1.15,2013-06-23 07:55:00,
2013-06-23 02:00:00,68.0,20.1,29.74,East,101,1.0,1.0,16,0.00,,,0.00,Wunderground v.1.15,2013-06-23 08:00:00,
2013-06-23 02:10:00,67.2,19.4,29.74,SSE,150,0.0,2.0,16,0.00,,,0.00,Wunderground v.1.15,2013-06-23 08:10:00,
2013-06-23 02:15:00,67.5,21.1,29.74,SE,131,1.0,2.0,17,0.00,,,0.00,Wunderground v.1.15,2013-06-23 08:15:00,
2013-06-23 02:25:00,66.4,20.2,29.74,SE,124,0.0,1.0,17,0.00,,,0.00,Wunderground v.1.15,2013-06-23 08:25:00,
2013-06-23 02:30:00,66.3,20.1,29.74,SE,129,0.0,1.0,17,0.00,,,0.00,Wunderground v.1.15,2013-06-23 08:30:00,
2013-06-23 02:40:00,66.6,20.4,29.74,SE,131,0.0,0.0,17,0.00,,,0.00,Wunderground v.1.15,2013-06-23 08:40:00,
2013-06-23 02:50:00,65.1,20.5,29.75,SE,129,0.0,0.0,18,0.00,,,0.00,Wunderground v.1.15,2013-06-23 08:50:00,
2013-06-23 02:55:00,65.0,20.4,29.75,North,359,0.0,1.0,18,0.00,,,0.00,Wunderground v.1.15,2013-06-23 08:55:00,
2013-06-23 03:00:00,65.1,17.7,29.75,SE,124,0.0,0.0,16,0.00,,,0.00,Wunderground v.1.15,2013-06-23 09:00:00,
2013-06-23 03:10:00,68.2,11.6,29.75,SE,124,2.0,2.0,11,0.00,,,0.00,Wunderground v.1.15,2013-06-23 09:10:00,
2013-06-23 03:15:00,68.7,12.0,29.75,SE,136,3.0,4.0,11,0.00,,,0.00,Wunderground v.1.15,2013-06-23 09:15:00,
2013-06-23 03:20:00,68.9,12.2,29.75,SSE,158,3.0,4.0,11,0.00,,,0.00,Wunderground v.1.15,2013-06-23 09:20:00,
2013-06-23 03:30:00,69.1,10.2,29.75,SE,129,4.0,4.0,10,0.00,,,0.00,Wunderground v.1.15,2013-06-23 09:30:00,
2013-06-23 03:40:00,68.9,10.0,29.75,ESE,122,2.0,5.0,10,0.00,,,0.00,Wunderground v.1.15,2013-06-23 09:40:00,
2013-06-23 03:45:00,68.7,12.0,29.75,SE,136,2.0,5.0,11,0.00,,,0.00,Wunderground v.1.15,2013-06-23 09:45:00,
2013-06-23 03:50:00,68.6,9.8,29.75,ESE,119,3.0,4.0,10,0.00,,,0.00,Wunderground v.1.15,2013-06-23 09:50:00,
2013-06-23 03:55:00,68.6,11.9,29.75,ESE,117,3.0,4.0,11,0.00,,,0.00,Wunderground v.1.15,2013-06-23 09:55:00,
2013-06-23 04:00:00,68.3,11.7,29.75,SE,129,1.0,1.0,11,0.00,,,0.00,Wunderground v.1.15,2013-06-23 10:00:00,
2013-06-23 04:10:00,67.6,13.1,29.75,ESE,122,0.0,0.0,12,0.00,,,0.00,Wunderground v.1.15,2013-06-23 10:10:00,
2013-06-23 04:20:00,67.4,13.0,29.75,SE,138,1.0,1.0,12,0.00,,,0.00,Wunderground v.1.15,2013-06-23 10:20:00,
2013-06-23 04:30:00,67.1,12.7,29.75,ESE,118,1.0,1.0,12,0.00,,,0.00,Wunderground v.1.15,2013-06-23 10:30:00,
2013-06-23 04:35:00,66.8,12.5,29.75,ESE,123,1.0,1.0,12,0.00,,,0.00,Wunderground v.1.15,2013-06-23 10:35:00,
2013-06-23 04:45:00,67.1,12.7,29.75,ESE,107,2.0,3.0,12,0.00,,,0.00,Wunderground v.1.15,2013-06-23 10:45:00,
2013-06-23 04:55:00,67.2,12.8,29.75,SE,131,2.0,2.0,12,0.00,,,0.00,Wunderground v.1.15,2013-06-23 10:55:00,
2013-06-23 05:00:00,66.9,12.6,29.76,ESE,121,1.0,1.0,12,0.00,,,0.00,Wunderground v.1.15,2013-06-23 11:00:00,
2013-06-23 05:10:00,65.8,15.2,29.76,ESE,122,0.0,0.0,14,0.00,,,0.00,Wunderground v.1.15,2013-06-23 11:10:00,
2013-06-23 05:15:00,64.8,14.4,29.76,ESE,121,0.0,0.0,14,0.00,,,0.00,Wunderground v.1.15,2013-06-23 11:15:00,
2013-06-23 05:25:00,63.7,15.1,29.76,ESE,120,0.0,0.0,15,0.00,,,0.00,Wunderground v.1.15,2013-06-23 11:25:00,
2013-06-23 05:30:00,63.8,16.7,29.76,ESE,118,0.0,0.0,16,0.00,,,0.00,Wunderground v.1.15,2013-06-23 11:30:00,
2013-06-23 05:35:00,63.4,16.4,29.76,ESE,117,0.0,0.0,16,0.00,,,0.00,Wunderground v.1.15,2013-06-23 11:35:00,
2013-06-23 05:45:00,63.1,16.1,29.77,ESE,120,0.0,0.0,16,0.00,,,0.00,Wunderground v.1.15,2013-06-23 11:45:00,
2013-06-23 05:50:00,62.7,18.5,29.77,NNE,21,0.0,0.0,18,0.00,,,0.00,Wunderground v.1.15,2013-06-23 11:50:00,
2013-06-23 05:55:00,61.7,20.2,29.78,NNW,339,0.0,0.0,20,0.00,,,0.00,Wunderground v.1.15,2013-06-23 11:55:00,
2013-06-23 06:00:00,61.2,18.6,29.78,NNW,338,0.0,0.0,19,0.00,,,0.00,Wunderground v.1.15,2013-06-23 12:00:00,
2013-06-23 06:10:00,60.2,21.2,29.77,NNW,338,0.0,0.0,22,0.00,,,0.00,Wunderground v.1.15,2013-06-23 12:10:00,
2013-06-23 06:15:00,59.6,20.7,29.78,NNW,338,0.0,0.0,22,0.00,,,0.00,Wunderground v.1.15,2013-06-23 12:15:00,
2013-06-23 06:25:00,58.8,21.0,29.78,NNW,339,0.0,0.0,23,0.00,,,0.00,Wunderground v.1.15,2013-06-23 12:25:00,
2013-06-23 06:30:00,58.4,23.6,29.78,NNW,339,0.0,0.0,26,0.00,,,0.00,Wunderground v.1.15,2013-06-23 12:30:00,
2013-06-23 06:40:00,59.1,23.3,29.78,NNW,339,0.0,0.0,25,0.00,,,0.00,Wunderground v.1.15,2013-06-23 12:40:00,
2013-06-23 06:45:00,59.3,23.4,29.78,NNW,339,0.0,0.0,25,0.00,,,0.00,Wunderground v.1.15,2013-06-23 12:45:00,
2013-06-23 06:50:00,59.3,23.4,29.79,NNW,339,0.0,0.0,25,0.00,,,0.00,Wunderground v.1.15,2013-06-23 12:50:00,
2013-06-23 07:00:00,62.1,21.7,29.79,SE,131,0.0,0.0,21,0.00,,,0.00,Wunderground v.1.15,2013-06-23 13:00:00,
2013-06-23 07:10:00,64.7,20.2,29.80,SE,134,1.0,1.0,18,0.00,,,0.00,Wunderground v.1.15,2013-06-23 13:10:00,
2013-06-23 07:15:00,65.6,19.6,29.80,SSE,155,2.0,2.0,17,0.00,,,0.00,Wunderground v.1.15,2013-06-23 13:15:00,
2013-06-23 07:25:00,66.9,20.6,29.80,SSE,164,2.0,3.0,17,0.00,,,0.00,Wunderground v.1.15,2013-06-23 13:25:00,
2013-06-23 07:30:00,67.5,18.2,29.80,South,174,2.0,2.0,15,0.00,,,0.00,Wunderground v.1.15,2013-06-23 13:30:00,
2013-06-23 07:40:00,68.3,23.1,29.81,SE,145,1.0,1.0,18,0.00,,,0.00,Wunderground v.1.15,2013-06-23 13:40:00,
2013-06-23 07:45:00,68.5,21.9,29.81,SE,136,0.0,1.0,17,0.00,,,0.00,Wunderground v.1.15,2013-06-23 13:45:00,
2013-06-23 07:55:00,70.0,16.8,29.81,SSW,212,2.0,2.0,13,0.00,,,0.00,Wunderground v.1.15,2013-06-23 13:55:00,
2013-06-23 08:05:00,71.0,15.8,29.81,SSE,150,2.0,3.0,12,0.00,,,0.00,Wunderground v.1.15,2013-06-23 14:05:00,
2013-06-23 08:10:00,71.5,16.2,29.81,SSE,148,2.0,4.0,12,0.00,,,0.00,Wunderground v.1.15,2013-06-23 14:10:00,
2013-06-23 08:20:00,72.1,14.6,29.81,SSW,198,5.0,7.0,11,0.00,,,0.00,Wunderground v.1.15,2013-06-23 14:20:00,
2013-06-23 08:30:00,72.5,14.9,29.81,SSE,148,4.0,7.0,11,0.00,,,0.00,Wunderground v.1.15,2013-06-23 14:30:00,
2013-06-23 08:35:00,72.7,15.1,29.81,South,181,3.0,7.0,11,0.00,,,0.00,Wunderground v.1.15,2013-06-23 14:35:00,
2013-06-23 08:45:00,73.3,13.4,29.82,ESE,114,3.0,4.0,10,0.00,,,0.00,Wunderground v.1.15,2013-06-23 14:45:00,
2013-06-23 08:55:00,73.8,15.9,29.82,SSE,151,4.0,4.0,11,0.00,,,0.00,Wunderground v.1.15,2013-06-23 14:55:00,
2013-06-23 09:00:00,74.1,16.2,29.81,SE,145,3.0,3.0,11,0.00,,,0.00,Wunderground v.1.15,2013-06-23 15:00:00,
2013-06-23 09:05:00,74.4,14.2,29.81,SE,125,3.0,3.0,10,0.00,,,0.00,Wunderground v.1.15,2013-06-23 15:05:00,
2013-06-23 09:15:00,75.2,12.4,29.81,SE,138,2.0,4.0,9,0.00,,,0.00,Wunderground v.1.15,2013-06-23 15:15:00,
2013-06-23 09:25:00,76.0,13.0,29.81,SW,225,3.0,6.0,9,0.00,,,0.00,Wunderground v.1.15,2013-06-23 15:25:00,
2013-06-23 09:35:00,77.0,13.8,29.81,SSE,151,4.0,6.0,9,0.00,,,0.00,Wunderground v.1.15,2013-06-23 15:35:00,
2013-06-23 09:45:00,77.8,16.8,29.81,SSW,201,3.0,4.0,10,0.00,,,0.00,Wunderground v.1.15,2013-06-23 15:45:00,
2013-06-23 09:55:00,78.7,15.1,29.81,South,186,3.0,3.0,9,0.00,,,0.00,Wunderground v.1.15,2013-06-23 15:55:00,
2013-06-23 10:05:00,79.4,12.9,29.80,ESE,122,3.0,7.0,8,0.00,,,0.00,Wunderground v.1.15,2013-06-23 16:05:00,
2013-06-23 10:10:00,79.6,13.1,29.80,South,169,4.0,4.0,8,0.00,,,0.00,Wunderground v.1.15,2013-06-23 16:10:00,
2013-06-23 10:15:00,79.9,16.0,29.80,South,169,4.0,4.0,9,0.00,,,0.00,Wunderground v.1.15,2013-06-23 16:15:00,
2013-06-23 10:25:00,80.4,16.4,29.80,South,186,4.0,5.0,9,0.00,,,0.00,Wunderground v.1.15,2013-06-23 16:25:00,
2013-06-23 10:35:00,81.2,17.0,29.80,SE,141,3.0,4.0,9,0.00,,,0.00,Wunderground v.1.15,2013-06-23 16:35:00,
2013-06-23 10:45:00,81.9,17.5,29.79,SSE,165,2.0,6.0,9,0.00,,,0.00,Wunderground v.1.15,2013-06-23 16:45:00,
2013-06-23 10:55:00,82.5,15.2,29.79,South,188,3.0,3.0,8,0.00,,,0.00,Wunderground v.1.15,2013-06-23 16:55:00,
2013-06-23 11:05:00,82.5,20.4,29.79,South,169,4.0,6.0,10,0.00,,,0.00,Wunderground v.1.15,2013-06-23 17:05:00,
2013-06-23 11:10:00,83.0,15.6,29.79,South,188,4.0,4.0,8,0.00,,,0.00,Wunderground v.1.15,2013-06-23 17:10:00,
2013-06-23 11:15:00,83.4,15.9,29.79,SSW,201,2.0,4.0,8,0.00,,,0.00,Wunderground v.1.15,2013-06-23 17:15:00,
2013-06-23 11:25:00,84.5,19.4,29.78,SSE,166,3.0,4.0,9,0.00,,,0.00,Wunderground v.1.15,2013-06-23 17:25:00,
2013-06-23 11:30:00,84.2,16.5,29.78,South,186,3.0,8.0,8,0.00,,,0.00,Wunderground v.1.15,2013-06-23 17:30:00,
2013-06-23 11:35:00,84.2,19.2,29.78,ESE,122,4.0,8.0,9,0.00,,,0.00,Wunderground v.1.15,2013-06-23 17:35:00,
2013-06-23 11:40:00,84.1,16.4,29.78,West,278,4.0,4.0,8,0.00,,,0.00,Wunderground v.1.15,2013-06-23 17:40:00,
2013-06-23 11:45:00,84.6,16.8,29.78,SE,144,3.0,4.0,8,0.00,,,0.00,Wunderground v.1.15,2013-06-23 17:45:00,
2013-06-23 11:50:00,84.6,16.8,29.77,East,91,3.0,3.0,8,0.00,,,0.00,Wunderground v.1.15,2013-06-23 17:50:00,
2013-06-23 12:00:00,85.0,14.0,29.77,South,170,2.0,2.0,7,0.00,,,0.00,Wunderground v.1.15,2013-06-23 18:00:00,
2013-06-23 12:10:00,85.4,17.4,29.76,SSW,210,5.0,5.0,8,0.00,,,0.00,Wunderground v.1.15,2013-06-23 18:10:00,
2013-06-23 12:20:00,85.5,17.4,29.76,West,275,4.0,4.0,8,0.00,,,0.00,Wunderground v.1.15,2013-06-23 18:20:00,
2013-06-23 12:30:00,86.3,18.0,29.75,SE,144,3.0,6.0,8,0.00,,,0.00,Wunderground v.1.15,2013-06-23 18:30:00,
2013-06-23 12:35:00,86.3,15.0,29.75,ENE,74,3.0,6.0,7,0.00,,,0.00,Wunderground v.1.15,2013-06-23 18:35:00,
2013-06-23 12:45:00,87.1,18.6,29.75,SW,232,1.0,2.0,8,0.00,,,0.00,Wunderground v.1.15,2013-06-23 18:45:00,
2013-06-23 12:55:00,87.6,19.0,29.74,South,169,3.0,6.0,8,0.00,,,0.00,Wunderground v.1.15,2013-06-23 18:55:00,
2013-06-23 13:00:00,87.4,18.9,29.74,WSW,242,2.0,5.0,8,0.00,,,0.00,Wunderground v.1.15,2013-06-23 19:00:00,
2013-06-23 13:10:00,87.7,16.0,29.74,ESE,118,2.0,2.0,7,0.00,,,0.00,Wunderground v.1.15,2013-06-23 19:10:00,
2013-06-23 13:15:00,87.5,12.3,29.74,SSE,158,3.0,11.0,6,0.00,,,0.00,Wunderground v.1.15,2013-06-23 19:15:00,
2013-06-23 13:20:00,87.2,15.6,29.73,SSE,150,4.0,4.0,7,0.00,,,0.00,Wunderground v.1.15,2013-06-23 19:20:00,
2013-06-23 13:30:00,87.1,15.5,29.73,SE,127,4.0,5.0,7,0.00,,,0.00,Wunderground v.1.15,2013-06-23 19:30:00,
2013-06-23 13:40:00,88.0,16.2,29.73,ESE,122,2.0,2.0,7,0.00,,,0.00,Wunderground v.1.15,2013-06-23 19:40:00,
2013-06-23 13:45:00,88.8,13.2,29.72,SE,133,2.0,6.0,6,0.00,,,0.00,Wunderground v.1.15,2013-06-23 19:45:00,
2013-06-23 13:55:00,88.6,16.6,29.72,WSW,243,3.0,7.0,7,0.00,,,0.00,Wunderground v.1.15,2013-06-23 19:55:00,
2013-06-23 14:00:00,88.4,13.0,29.71,WNW,295,3.0,3.0,6,0.00,,,0.00,Wunderground v.1.15,2013-06-23 20:00:00,
2013-06-23 14:10:00,88.5,13.0,29.71,WNW,293,2.0,2.0,6,0.00,,,0.00,Wunderground v.1.15,2013-06-23 20:10:00,
2013-06-23 14:15:00,88.9,13.3,29.70,SE,136,2.0,4.0,6,0.00,,,0.00,Wunderground v.1.15,2013-06-23 20:15:00,
2013-06-23 14:25:00,90.2,14.2,29.70,East,92,2.0,2.0,6,0.00,,,0.00,Wunderground v.1.15,2013-06-23 20:25:00,
2013-06-23 14:35:00,89.5,13.7,29.70,ESE,105,5.0,10.0,6,0.00,,,0.00,Wunderground v.1.15,2013-06-23 20:35:00,
2013-06-23 14:40:00,89.2,13.5,29.69,East,86,4.0,4.0,6,0.00,,,0.00,Wunderground v.1.15,2013-06-23 20:40:00,
2013-06-23 14:45:00,90.0,14.1,29.69,SW,216,2.0,4.0,6,0.00,,,0.00,Wunderground v.1.15,2013-06-23 20:45:00,
2013-06-23 14:55:00,90.4,10.3,29.69,East,101,4.0,4.0,5,0.00,,,0.00,Wunderground v.1.15,2013-06-23 20:55:00,
2013-06-23 15:00:00,90.1,10.0,29.68,SSE,155,4.0,4.0,5,0.00,,,0.00,Wunderground v.1.15,2013-06-23 21:00:00,
2013-06-23 15:10:00,90.8,10.5,29.68,SSE,160,3.0,5.0,5,0.00,,,0.00,Wunderground v.1.15,2013-06-23 21:10:00,
2013-06-23 15:15:00,91.0,10.7,29.68,SSE,152,4.0,5.0,5,0.00,,,0.00,Wunderground v.1.15,2013-06-23 21:15:00,
2013-06-23 15:25:00,91.1,10.8,29.67,ESE,123,4.0,9.0,5,0.00,,,0.00,Wunderground v.1.15,2013-06-23 21:25:00,
2013-06-23 15:30:00,90.3,10.2,29.67,ENE,68,5.0,5.0,5,0.00,,,0.00,Wunderground v.1.15,2013-06-23 21:30:00,
2013-06-23 15:40:00,90.9,5.7,29.67,South,176,3.0,3.0,4,0.00,,,0.00,Wunderground v.1.15,2013-06-23 21:40:00,
2013-06-23 15:50:00,91.8,15.4,29.66,SW,218,3.0,3.0,6,0.00,,,0.00,Wunderground v.1.15,2013-06-23 21:50:00,
2013-06-23 16:00:00,91.9,6.3,29.66,West,264,4.0,4.0,4,0.00,,,0.00,Wunderground v.1.15,2013-06-23 22:00:00,
2013-06-23 16:10:00,91.6,11.1,29.65,SW,226,3.0,15.0,5,0.00,,,0.00,Wunderground v.1.15,2013-06-23 22:10:00,
2013-06-23 16:20:00,91.9,11.3,29.65,South,189,5.0,5.0,5,0.00,,,0.00,Wunderground v.1.15,2013-06-23 22:20:00,
2013-06-23 16:30:00,91.9,6.3,29.64,SE,128,5.0,5.0,4,0.00,,,0.00,Wunderground v.1.15,2013-06-23 22:30:00,
2013-06-23 16:40:00,91.8,6.3,29.64,SE,139,3.0,3.0,4,0.00,,,0.00,Wunderground v.1.15,2013-06-23 22:40:00,
2013-06-23 16:50:00,93.0,12.1,29.63,SE,143,2.0,3.0,5,0.00,,,0.00,Wunderground v.1.15,2013-06-23 22:50:00,
2013-06-23 17:00:00,92.9,12.0,29.63,South,172,4.0,5.0,5,0.00,,,0.00,Wunderground v.1.15,2013-06-23 23:00:00,
2013-06-23 17:10:00,92.9,7.0,29.62,SE,141,5.0,9.0,4,0.00,,,0.00,Wunderground v.1.15,2013-06-23 23:10:00,
2013-06-23 17:20:00,92.7,11.9,29.62,SSW,205,5.0,5.0,5,0.00,,,0.00,Wunderground v.1.15,2013-06-23 23:20:00,
2013-06-23 17:30:00,92.6,6.8,29.61,SSE,154,5.0,5.0,4,0.00,,,0.00,Wunderground v.1.15,2013-06-23 23:30:00,
2013-06-23 17:35:00,92.9,12.0,29.61,South,169,4.0,5.0,5,0.00,,,0.00,Wunderground v.1.15,2013-06-23 23:35:00,
2013-06-23 17:40:00,92.7,11.9,29.61,South,188,5.0,5.0,5,0.00,,,0.00,Wunderground v.1.15,2013-06-23 23:40:00,
2013-06-23 17:50:00,92.6,11.8,29.60,South,187,6.0,7.0,5,0.00,,,0.00,Wunderground v.1.15,2013-06-23 23:50:00,
2013-06-23 18:00:00,92.5,15.9,29.59,SW,229,6.0,6.0,6,0.00,,,0.00,Wunderground v.1.15,2013-06-24 00:00:00,
2013-06-23 18:10:00,93.1,12.2,29.60,South,191,4.0,4.0,5,0.00,,,0.00,Wunderground v.1.15,2013-06-24 00:10:00,
2013-06-23 18:20:00,92.3,11.6,29.59,South,181,6.0,6.0,5,0.00,,,0.00,Wunderground v.1.15,2013-06-24 00:20:00,
2013-06-23 18:25:00,92.5,11.7,29.60,SE,133,5.0,8.0,5,0.00,,,0.00,Wunderground v.1.15,2013-06-24 00:25:00,
2013-06-23 18:35:00,91.8,11.2,29.59,SE,131,6.0,6.0,5,0.00,,,0.00,Wunderground v.1.15,2013-06-24 00:35:00,
2013-06-23 18:45:00,92.0,6.4,29.59,South,170,5.0,6.0,4,0.00,,,0.00,Wunderground v.1.15,2013-06-24 00:45:00,
2013-06-23 18:50:00,92.2,11.5,29.59,WSW,250,4.0,5.0,5,0.00,,,0.00,Wunderground v.1.15,2013-06-24 00:50:00,
2013-06-23 19:00:00,91.8,11.2,29.59,SE,145,6.0,12.0,5,0.00,,,0.00,Wunderground v.1.15,2013-06-24 01:00:00,
2013-06-23 19:10:00,91.6,11.1,29.59,SSE,155,7.0,10.0,5,0.00,,,0.00,Wunderground v.1.15,2013-06-24 01:10:00,
2013-06-23 19:20:00,91.6,11.1,29.59,SSE,152,5.0,8.0,5,0.00,,,0.00,Wunderground v.1.15,2013-06-24 01:20:00,
2013-06-23 19:30:00,91.5,6.1,29.59,South,180,6.0,6.0,4,0.00,,,0.00,Wunderground v.1.15,2013-06-24 01:30:00,
2013-06-23 19:35:00,91.5,6.1,29.59,SSE,159,6.0,6.0,4,0.00,,,0.00,Wunderground v.1.15,2013-06-24 01:35:00,
2013-06-23 19:40:00,91.3,5.9,29.59,SSE,149,5.0,6.0,4,0.00,,,0.00,Wunderground v.1.15,2013-06-24 01:40:00,
2013-06-23 19:50:00,90.6,5.5,29.59,South,188,5.0,7.0,4,0.00,,,0.00,Wunderground v.1.15,2013-06-24 01:50:00,
2013-06-23 20:00:00,89.6,4.8,29.59,SSW,194,4.0,4.0,4,0.00,,,0.00,Wunderground v.1.15,2013-06-24 02:00:00,
2013-06-23 20:10:00,88.9,4.3,29.59,SSE,162,4.0,6.0,4,0.00,,,0.00,Wunderground v.1.15,2013-06-24 02:10:00,
2013-06-23 20:15:00,88.7,4.1,29.59,SSW,198,5.0,7.0,4,0.00,,,0.00,Wunderground v.1.15,2013-06-24 02:15:00,
2013-06-23 20:20:00,88.5,4.0,29.60,SSW,197,5.0,10.0,4,0.00,,,0.00,Wunderground v.1.15,2013-06-24 02:20:00,
2013-06-23 20:25:00,88.2,8.7,29.60,SSE,159,4.0,10.0,5,0.00,,,0.00,Wunderground v.1.15,2013-06-24 02:25:00,
2013-06-23 20:35:00,87.4,8.1,29.60,SSE,162,3.0,5.0,5,0.00,,,0.00,Wunderground v.1.15,2013-06-24 02:35:00,
2013-06-23 20:45:00,86.7,7.7,29.60,SSE,164,2.0,4.0,5,0.00,,,0.00,Wunderground v.1.15,2013-06-24 02:45:00,
2013-06-23 20:55:00,85.9,11.2,29.60,SE,141,3.0,3.0,6,0.00,,,0.00,Wunderground v.1.15,2013-06-24 02:55:00,
2013-06-23 21:00:00,85.3,10.7,29.60,SE,139,3.0,3.0,6,0.00,,,0.00,Wunderground v.1.15,2013-06-24 03:00:00,
2013-06-23 21:10:00,84.5,10.2,29.60,SE,135,2.0,4.0,6,0.00,,,0.00,Wunderground v.1.15,2013-06-24 03:10:00,
2013-06-23 21:20:00,83.8,13.1,29.61,SE,141,3.0,3.0,7,0.00,,,0.00,Wunderground v.1.15,2013-06-24 03:20:00,
2013-06-23 21:30:00,83.5,12.9,29.61,SE,135,4.0,4.0,7,0.00,,,0.00,Wunderground v.1.15,2013-06-24 03:30:00,
2013-06-23 21:35:00,83.3,9.3,29.61,SE,141,4.0,5.0,6,0.00,,,0.00,Wunderground v.1.15,2013-06-24 03:35:00,
2013-06-23 21:45:00,83.0,9.1,29.62,SE,137,4.0,5.0,6,0.00,,,0.00,Wunderground v.1.15,2013-06-24 03:45:00,
2013-06-23 21:55:00,82.5,8.7,29.63,SSE,155,4.0,7.0,6,0.00,,,0.00,Wunderground v.1.15,2013-06-24 03:55:00,
2013-06-23 22:00:00,82.3,8.6,29.63,SSE,155,5.0,5.0,6,0.00,,,0.00,Wunderground v.1.15,2013-06-24 04:00:00,
2013-06-23 22:05:00,82.0,11.8,29.64,SSE,160,4.0,7.0,7,0.00,,,0.00,Wunderground v.1.15,2013-06-24 04:05:00,
2013-06-23 22:15:00,81.7,11.6,29.64,SSE,165,5.0,6.0,7,0.00,,,0.00,Wunderground v.1.15,2013-06-24 04:15:00,
2013-06-23 22:20:00,81.4,11.4,29.64,SSE,152,5.0,5.0,7,0.00,,,0.00,Wunderground v.1.15,2013-06-24 04:20:00,
2013-06-23 22:25:00,81.1,11.1,29.65,ESE,118,5.0,5.0,7,0.00,,,0.00,Wunderground v.1.15,2013-06-24 04:25:00,
2013-06-23 22:30:00,80.8,10.9,29.65,SE,141,4.0,4.0,7,0.00,,,0.00,Wunderground v.1.15,2013-06-24 04:30:00,
2013-06-23 22:35:00,80.7,10.9,29.65,SSE,150,4.0,5.0,7,0.00,,,0.00,Wunderground v.1.15,2013-06-24 04:35:00,
2013-06-23 22:40:00,80.6,10.8,29.66,SE,134,5.0,5.0,7,0.00,,,0.00,Wunderground v.1.15,2013-06-24 04:40:00,
2013-06-23 22:50:00,80.1,13.4,29.67,SSE,149,4.0,4.0,8,0.00,,,0.00,Wunderground v.1.15,2013-06-24 04:50:00,
2013-06-23 23:00:00,79.9,13.3,29.67,ESE,123,5.0,5.0,8,0.00,,,0.00,Wunderground v.1.15,2013-06-24 05:00:00,
2013-06-23 23:05:00,79.6,13.1,29.67,SE,125,5.0,7.0,8,0.00,,,0.00,Wunderground v.1.15,2013-06-24 05:05:00,
2013-06-23 23:10:00,79.3,12.8,29.68,SE,141,5.0,5.0,8,0.00,,,0.00,Wunderground v.1.15,2013-06-24 05:10:00,
2013-06-23 23:15:00,79.0,12.6,29.68,ESE,122,5.0,5.0,8,0.00,,,0.00,Wunderground v.1.15,2013-06-24 05:15:00,
2013-06-23 23:25:00,78.6,12.3,29.68,SSE,157,4.0,5.0,8,0.00,,,0.00,Wunderground v.1.15,2013-06-24 05:25:00,
2013-06-23 23:35:00,77.7,14.3,29.68,ESE,123,4.0,4.0,9,0.00,,,0.00,Wunderground v.1.15,2013-06-24 05:35:00,
2013-06-23 23:40:00,77.5,14.2,29.69,SE,137,4.0,4.0,9,0.00,,,0.00,Wunderground v.1.15,2013-06-24 05:40:00,
2013-06-23 23:50:00,77.0,13.8,29.69,East,87,3.0,3.0,9,0.00,,,0.00,Wunderground v.1.15,2013-06-24 05:50:00,